Location: Monrovia
(34.7865°N, 86.7139°W)
Time: 22:08:14
(UTC+00:00)

Cosmos 1943 - Pass Details

Date: 14 July 2020
Orbit: 835 x 848 km, 71.0° (Epoch: 08 August)

Event Time Altitude Azimuth Distance (km) Brightness Sun altitude
Exits shadow 05:25:06 40° 307° (NW) 1,231 4.2 -33.2°
Drops below altitude 10° 05:30:00 10° 6° (N) 2,465 6.4 -33.4°
Sets 05:32:36 0° 14° (NNE) 3,401 7.3 -33.4°
